Weather History for KSUE - September, 2014

Change the Weather History Date:

Wednesday, September 24, 2014

  Actual Average Record
Temperature  
Mean Temperature 60 °F -  
Max Temperature 68 °F 64 °F 80 °F (1920)
Min Temperature 53 °F 44 °F 27 °F (1989)
Degree Days  
Heating Degree Days 4    
Growing Degree Days 10 (Base 50)    
Moisture  
Dew Point 51 °F    
Average Humidity 76    
Maximum Humidity 88    
Minimum Humidity 64    
Precipitation  
Precipitation 0.00 in - - ()
Sea Level Pressure  
Sea Level Pressure 30.33 in    
Wind  
Wind Speed 8 mph (South)    
Max Wind Speed 12 mph    
Max Gust Speed 16 mph    
Visibility 10 miles    
Events      
Averages and records for this station are not official NWS values.
T = Trace of Precipitation, MM = Missing Value Source: NWS Daily Summary

Daily Weather History Graph

Daily Weather History Graph

Search for Another Location

Airport or City:

Trip Planner

Search our weather history database for the weather conditions in past years. The results will help you decide how hot, cold, wet, or windy it might be!

Date:

Astronomy

Sep. 24, 2014 Rise Set
Actual Time 6:39 AM CDT 6:43 PM CDT
Civil Twilight 6:09 AM CDT 7:12 PM CDT
Nautical Twilight 5:35 AM CDT 7:46 PM CDT
Astronomical Twilight 5:00 AM CDT 8:21 PM CDT
Moon 7:01 AM CDT (9/24) 6:50 PM CDT (9/24)
Length of Visible Light 13h 02m
Length of Day
12h 04m
New Moon, 0% of the Moon is Illuminated
Sep 24
New Moon
Oct 1
First Quarter
Oct 8
Full
Oct 15
Last Quarter
Oct 23
New

Hourly Weather History & Observations

Time (CDT) Temp. Dew Point Humidity Pressure Visibility Wind Dir Wind Speed Gust Speed Precip Events Conditions
12:15 AM 55.4 °F 51.8 °F 88% 30.31 in 10.0 mi South 8.1 mph - N/A   Clear
12:35 AM 55.4 °F 51.8 °F 88% 30.31 in 10.0 mi South 6.9 mph - N/A   Clear
12:55 AM 55.4 °F 51.8 °F 88% 30.31 in 10.0 mi South 8.1 mph - N/A   Clear
1:15 AM 55.4 °F 50.0 °F 82% 30.32 in 10.0 mi South 6.9 mph - N/A   Clear
1:35 AM 55.4 °F 50.0 °F 82% 30.32 in 10.0 mi South 6.9 mph - N/A   Clear
1:55 AM 55.4 °F 50.0 °F 82% 30.32 in 10.0 mi South 6.9 mph - N/A   Clear
2:15 AM 55.4 °F 48.2 °F 77% 30.32 in 10.0 mi South 8.1 mph - N/A   Clear
2:35 AM 55.4 °F 48.2 °F 77% 30.32 in 10.0 mi South 8.1 mph - N/A   Clear
2:55 AM 55.4 °F 48.2 °F 77% 30.31 in 10.0 mi South 8.1 mph - N/A   Clear
3:15 AM 55.4 °F 48.2 °F 77% 30.31 in 10.0 mi South 6.9 mph - N/A   Clear
3:35 AM 55.4 °F 48.2 °F 77% 30.32 in 10.0 mi SSW 6.9 mph - N/A   Clear
3:55 AM 53.6 °F 48.2 °F 82% 30.32 in 10.0 mi South 8.1 mph - N/A   Clear
4:15 AM 55.4 °F 48.2 °F 77% 30.32 in 10.0 mi South 8.1 mph - N/A   Clear
4:35 AM 55.4 °F 48.2 °F 77% 30.32 in 10.0 mi South 8.1 mph - N/A   Clear
4:55 AM 55.4 °F 46.4 °F 72% 30.32 in 10.0 mi South 8.1 mph - N/A   Clear
5:15 AM 53.6 °F 46.4 °F 77% 30.33 in 10.0 mi South 6.9 mph - N/A   Clear
5:35 AM 53.6 °F 46.4 °F 77% 30.33 in 10.0 mi South 6.9 mph - N/A   Clear
5:55 AM 53.6 °F 46.4 °F 77% 30.33 in 10.0 mi South 6.9 mph - N/A   Clear
6:15 AM 53.6 °F 46.4 °F 77% 30.34 in 10.0 mi South 5.8 mph - N/A   Clear
6:35 AM 53.6 °F 46.4 °F 77% 30.35 in 10.0 mi South 5.8 mph - N/A   Clear
6:55 AM 53.6 °F 46.4 °F 77% 30.35 in 10.0 mi South 8.1 mph - N/A   Clear
7:15 AM 53.6 °F 48.2 °F 82% 30.35 in 10.0 mi South 6.9 mph - N/A   Clear
7:35 AM 53.6 °F 48.2 °F 82% 30.36 in 10.0 mi South 5.8 mph - N/A   Clear
7:55 AM 55.4 °F 48.2 °F 77% 30.36 in 10.0 mi South 6.9 mph - N/A   Clear
8:15 AM 57.2 °F 51.8 °F 82% 30.37 in 10.0 mi South 9.2 mph - N/A   Clear
8:35 AM 59.0 °F 51.8 °F 77% 30.37 in 10.0 mi South 10.4 mph - N/A   Clear
8:55 AM 60.8 °F 53.6 °F 77% 30.37 in 10.0 mi South 9.2 mph - N/A   Clear
9:15 AM 60.8 °F 53.6 °F 77% 30.37 in 10.0 mi South 9.2 mph - N/A   Clear
9:35 AM 60.8 °F 55.4 °F 82% 30.38 in 10.0 mi South 11.5 mph - N/A   Clear
9:55 AM 60.8 °F 55.4 °F 82% 30.37 in 10.0 mi South 8.1 mph - N/A   Clear
10:15 AM 62.6 °F 55.4 °F 77% 30.37 in 10.0 mi South 10.4 mph - N/A   Clear
10:35 AM 64.4 °F 55.4 °F 73% 30.37 in 10.0 mi South 9.2 mph - N/A   Clear
10:55 AM 64.4 °F 55.4 °F 73% 30.37 in 10.0 mi South 8.1 mph - N/A   Clear
11:15 AM 64.4 °F 55.4 °F 73% 30.37 in 10.0 mi South 10.4 mph - N/A   Clear
11:35 AM 64.4 °F 55.4 °F 73% 30.36 in 10.0 mi SSE 10.4 mph - N/A   Clear
11:55 AM 64.4 °F 55.4 °F 73% 30.36 in 10.0 mi South 6.9 mph - N/A   Clear
12:15 PM 66.2 °F 55.4 °F 68% 30.36 in 10.0 mi SSE 6.9 mph - N/A   Clear
12:35 PM 66.2 °F 57.2 °F 73% 30.36 in 10.0 mi South 10.4 mph 16.1 mph N/A   Clear
12:55 PM 64.4 °F 55.4 °F 73% 30.36 in 10.0 mi SSE 8.1 mph - N/A   Clear
1:15 PM 64.4 °F 55.4 °F 73% 30.35 in 10.0 mi South 8.1 mph - N/A   Clear
1:35 PM 66.2 °F 55.4 °F 68% 30.34 in 10.0 mi South 9.2 mph - N/A   Clear
1:55 PM 68.0 °F 55.4 °F 64% 30.34 in 10.0 mi South 9.2 mph - N/A   Clear
2:15 PM 66.2 °F 53.6 °F 64% 30.33 in 10.0 mi South 9.2 mph - N/A   Clear
2:35 PM 66.2 °F 55.4 °F 68% 30.33 in 10.0 mi SSE 9.2 mph - N/A   Clear
2:55 PM 66.2 °F 57.2 °F 73% 30.32 in 10.0 mi SE 10.4 mph - N/A   Clear
3:15 PM 66.2 °F 55.4 °F 68% 30.32 in 10.0 mi SSE 10.4 mph 16.1 mph N/A   Clear
3:35 PM 66.2 °F 53.6 °F 64% 30.31 in 10.0 mi SSE 11.5 mph - N/A   Clear
3:55 PM 66.2 °F 53.6 °F 64% 30.30 in 10.0 mi SSE 10.4 mph - N/A   Clear
4:15 PM 66.2 °F 53.6 °F 64% 30.30 in 10.0 mi South 10.4 mph - N/A   Clear
4:35 PM 64.4 °F 51.8 °F 64% 30.30 in 10.0 mi SSE 8.1 mph - N/A   Clear
4:55 PM 62.6 °F 53.6 °F 72% 30.30 in 10.0 mi SSE 9.2 mph - N/A   Clear
5:15 PM 62.6 °F 53.6 °F 72% 30.30 in 10.0 mi SSE 11.5 mph - N/A   Clear
5:35 PM 62.6 °F 51.8 °F 68% 30.30 in 10.0 mi SE 3.5 mph - N/A   Clear
5:55 PM 60.8 °F 51.8 °F 72% 30.31 in 10.0 mi SSE 4.6 mph - N/A   Clear
6:15 PM 60.8 °F 51.8 °F 72% 30.30 in 10.0 mi SSE 5.8 mph - N/A   Clear
6:35 PM 59.0 °F 51.8 °F 77% 30.30 in 10.0 mi SSE 5.8 mph - N/A   Clear
6:55 PM 57.2 °F 51.8 °F 82% 30.30 in 10.0 mi SSE 6.9 mph - N/A   Clear
7:15 PM 57.2 °F 51.8 °F 82% 30.30 in 10.0 mi South 8.1 mph - N/A   Clear
7:35 PM 57.2 °F 51.8 °F 82% 30.30 in 10.0 mi South 8.1 mph - N/A   Clear
7:55 PM 57.2 °F 51.8 °F 82% 30.30 in 10.0 mi South 5.8 mph - N/A   Clear
8:15 PM 57.2 °F 50.0 °F 77% 30.31 in 10.0 mi South 6.9 mph - N/A   Clear
8:35 PM 57.2 °F 48.2 °F 72% 30.31 in 10.0 mi South 5.8 mph - N/A   Clear
8:55 PM 59.0 °F 48.2 °F 67% 30.30 in 10.0 mi SSE 6.9 mph - N/A   Clear
9:15 PM 59.0 °F 48.2 °F 67% 30.31 in 10.0 mi South 6.9 mph - N/A   Clear
9:35 PM 59.0 °F 48.2 °F 67% 30.31 in 10.0 mi South 5.8 mph - N/A   Clear
9:55 PM 57.2 °F 48.2 °F 72% 30.31 in 10.0 mi SE 6.9 mph - N/A   Clear
10:15 PM 57.2 °F 48.2 °F 72% 30.31 in 10.0 mi ESE 3.5 mph - N/A   Clear
10:35 PM 55.4 °F 50.0 °F 82% 30.31 in 10.0 mi SSE 4.6 mph - N/A   Clear
10:55 PM 55.4 °F 51.8 °F 88% 30.30 in 10.0 mi ESE 5.8 mph - N/A   Clear
11:15 PM 55.4 °F 51.8 °F 88% 30.30 in 10.0 mi SE 5.8 mph - N/A   Clear
11:35 PM 55.4 °F 51.8 °F 88% 30.30 in 10.0 mi SE 5.8 mph - N/A   Clear
11:55 PM 55.4 °F 51.8 °F 88% 30.30 in 10.0 mi SE 4.6 mph - N/A   Partly Cloudy